This is the latest recevied weather packets stored in our database for station/object KE5AKC. If no packets are shown the sender has not sent any weather packets the latest 10 day(s).
| Time | Temp. | Humidity | Pressure | Rain* | Wind** | Luminosity | Snow |
|---|---|---|---|---|---|---|---|
| 1777749721 | 22.78° C | 42% | 1019.5 hPa | 0 mm | - | 963 W/m² | - |
| 1777749418 | 22.78° C | 42% | 1019.5 hPa | 0 mm | - | 966 W/m² | - |
| 1777749115 | 22.78° C | 41% | 1019.5 hPa | 0 mm | - | 974 W/m² | - |
| 1777748813 | 22.22° C | 40% | 1019.5 hPa | 0 mm | - | 981 W/m² | - |
| 1777748510 | 22.78° C | 42% | 1019.5 hPa | 0 mm | - | 987 W/m² | - |
| 1777748204 | 22.78° C | 42% | 1019.8 hPa | 0 mm | - | 986 W/m² | - |
| 1777747901 | 22.22° C | 46% | 1019.5 hPa | 0 mm | - | 991 W/m² | - |
| 1777747598 | 22.22° C | 45% | 1019.5 hPa | 0 mm | - | 996 W/m² | - |
| 1777747293 | 22.22° C | 44% | 1019.8 hPa | 0 mm | - | 1004 W/m² | - |
| 1777746990 | 22.22° C | 43% | 1019.8 hPa | 0 mm | - | 1003 W/m² | - |
| 1777746686 | 22.22° C | 43% | 1020.2 hPa | 0 mm | - | 1005 W/m² | - |
| 1777746381 | 21.67° C | 47% | 1020.2 hPa | 0 mm | - | 1004 W/m² | - |
| 1777746077 | 21.67° C | 44% | 1020.2 hPa | 0 mm | - | 1004 W/m² | - |
| 1777745775 | 21.67° C | 46% | 1020.2 hPa | 0 mm | - | 1001 W/m² | - |
| 1777745474 | 21.67° C | 44% | 1020.2 hPa | 0 mm | - | 1006 W/m² | - |
| 1777745170 | 22.22° C | 45% | 1020.2 hPa | 0 mm | - | 1001 W/m² | - |
| 1777744868 | 21.67° C | 45% | 1020.2 hPa | 0 mm | - | 998 W/m² | - |
| 1777744562 | 21.67° C | 48% | 1020.5 hPa | 0 mm | - | 997 W/m² | - |
| 1777744257 | 21.11° C | 48% | 1020.5 hPa | 0 mm | - | 993 W/m² | - |
| 1777743955 | 21.11° C | 46% | 1020.5 hPa | 0 mm | - | 988 W/m² | - |
| 1777743651 | 21.67° C | 46% | 1020.5 hPa | 0 mm | - | 986 W/m² | - |
| 1777743349 | 21.67° C | 46% | 1020.5 hPa | 0 mm | - | 981 W/m² | - |
| 1777743046 | 21.11° C | 48% | 1020.5 hPa | 0 mm | - | 977 W/m² | - |
| 1777742744 | 21.11° C | 46% | 1020.5 hPa | 0 mm | - | 973 W/m² | - |
| 1777742440 | 21.11° C | 48% | 1020.5 hPa | 0 mm | - | 966 W/m² | - |
* Rain latest hour (hover to see other rain measurements)
** Current wind speed in m/s (hover to see current wind gust speed)